Regional Weather Roundup
Issued by NWS Newport/Morehead, NC

Current Version | Previous Version | Graphics & Text | Print | Product List | Glossary Off
Versions: 1 2 3 4 5 6 7 8 9 10 11 12 13 14 15 16 17 18 19 20 21 22 23 24 25 26 27 28 29 30 31 32 33 34 35 36 37 38 39 40 41 42 43 44 45 46 47 48 49 50

277
ASUS42 KMHX 191425
RWRMHX
WEATHER ROUNDUP FOR EASTERN NORTH CAROLINA
NATIONAL WEATHER SERVICE NEWPORT/MOREHEAD CITY NC
900 AM EST SUN FEB 19 2017

NOTE: "FAIR" INDICATES FEW OR NO CLOUDS BELOW 12,000 FEET
WITH NO SIGNIFICANT WEATHER AND/OR OBSTRUCTIONS TO VISIBILITY

NCZ015>017-031-032-045>047-102-103-191500-
NORTH COAST

CITY           SKY/WX    TMP DP  RH WIND       PRES   REMARKS
EDENTON        SUNNY     57  46  65 W6        29.91S
ELIZABETH CITY SUNNY     57  45  64 W9        29.91R
KITTY HAWK     NOT AVBL
MANTEO         SUNNY     55  44  66 W5        29.90S

$$

NCZ045>047-081-094-103-104-191500-
CENTRAL COAST

CITY           SKY/WX    TMP DP  RH WIND       PRES   REMARKS
FRISCO         PTSUNNY   59  46  62 W5        29.91R HAZE

$$

NCZ095-097-098-100-101-191500-
SOUTHERN COAST

CITY           SKY/WX    TMP DP  RH WIND       PRES   REMARKS
BEAUFORT       MOSUNNY   56  47  71 W8        29.93S
CEDAR ISLAND   NOT AVBL
JACKSONVILLE   MOSUNNY   58  47  66 W9        29.95R
PINEY ISLAND   MOSUNNY  N/A N/A N/A SW7       29.92S
WILMINGTON     SUNNY     55  48  77 W9        29.97R


$$

NCZ011>013-027>030-043-044-078>080-089-090>093-098-191500-
COASTAL PLAIN

CITY           SKY/WX    TMP DP  RH WIND       PRES   REMARKS
AHOSKIE          N/A     56  42  60 NW3       29.91S
CLINTON        MOSUNNY   56  47  71 NW7       29.97R
ELIZABETHTOWN  SUNNY     55  47  72 W8        29.97R
GOLDSBORO      SUNNY     56  47  73 W7        29.92R
GREENVILLE     SUNNY     59  45  58 NW5       29.94R
HAVELOCK       PTSUNNY   57  45  64 W8        29.94R
KENANSVILLE    NOT AVBL
KINSTON        SUNNY     57  45  62 NW7       29.94R
NEW BERN       MOSUNNY   57  46  66 W5        29.94R
RICHLANDS      MOSUNNY   53  47  79 SW5       29.96R
ROCKY MOUNT    SUNNY     56  43  61 NW9       29.92R
WASHINGTON     SUNNY     58  44  60 W3        29.94R
WHITEVILLE     MOSUNNY   54  47  77 W3        29.98R

$$

AMZ130-135-150-152-154-156-158-170-250-252-270-ANZ085-086-088-633-658-670-191500-
MARINE OBSERVATIONS

STATION/POSITION TIME  TEMP    WIND        PRES    WAVE   SWELL
                       AIR SEA DIR/SP/G            HT/PER HT/PER
                 (UTC) (F)     (DEG/KT/KT) (MB)    (FT/S) (FT/S)
CHESAPEAKE LIGHT NOT AVBL
64 E VA BEACH    1350   53 51  250/ 10/ 12 1012.0    3/ 6   3/ 6
DUCK             1400   54 47  260/ 10/ 11 1012.2
2 E DUCK         1400      47                N/A     1/ 7
OREGON INLET     1400   52 51  200/  7/  7 1012.4
13E OREGON INLT  NOT AVBL
HATTERAS CG      1400   57 56  250/  8/ 10 1012.7
DIAMOND BUOY     1350   62 67  280/  8/ 10 1012.7    2/ 5   2/ 5
CAPE LOOKOUT     1400   56     280/  9/ 11 1013.0
BEAUFORT LAB     1400   55 51  250/  4/  8 1012.7
30 SE NEW RVR IN 1408   59     300/ 14/ 17 1014.0
30 SE NEW RVR IN 1413      65                N/A     2/ 5
27 SE WRIGHTSVLE 1408   58 60  270/ 17/ 23 1014.0
5 SE WRIGHTSVLE  1408   55 55  260/ 10/ 14 1015.0
225 S CAPE HAT   1350   69 71  190/ 14/ 16 1015.7    5/ 6   3/10
41 SE CHARLESTON 1350   61 68  300/ 14/ 16 1016.1    3/ 3   2/10

$$




USA.gov is the U.S. government's official web portal to all federal, state and local government web resources and services.